| time (UTC) | temp F | wind direction | speed MPH | gust MPH | rain 1hr in | rain 24hr in | rain mn in | humidity % | barometer mb |
| 20260904130041 | 64 | 194 | 7.0 | 16.0 | 0.00 | 0.00 | 0.00 | 27 | 1007.8 |
| 20260904124539 | 64 | 207 | 5.0 | 12.0 | 0.00 | 0.00 | 0.00 | 28 | 1007.6 |
| 20260904123039 | 63 | 205 | 1.0 | 8.0 | 0.00 | 0.00 | 0.00 | 31 | 1007.6 |
| 20260904121537 | 63 | 195 | 0.0 | 4.0 | 0.00 | 0.00 | 0.00 | 32 | 1007.7 |
| 20260904120034 | 64 | 182 | 2.0 | 8.0 | 0.00 | 0.00 | 0.00 | 32 | 1007.7 |
| 20260904114531 | 64 | 200 | 2.0 | 14.0 | 0.00 | 0.00 | 0.00 | 31 | 1007.6 |
| 20260904113030 | 65 | 188 | 5.0 | 12.0 | 0.00 | 0.00 | 0.00 | 31 | 1007.6 |
| 20260904111528 | 65 | 181 | 5.0 | 12.0 | 0.00 | 0.00 | 0.00 | 31 | 1007.5 |
| 20260904110026 | 66 | 176 | 7.0 | 18.0 | 0.00 | 0.00 | 0.00 | 29 | 1007.3 |
| 20260904104523 | 66 | 179 | 7.0 | 16.0 | 0.00 | 0.00 | 0.00 | 29 | 1007.2 |
| 20260904103024 | 66 | 160 | 8.0 | 14.0 | 0.00 | 0.00 | 0.00 | 28 | 1007.2 |
| 20260904101522 | 66 | 181 | 6.0 | 12.0 | 0.00 | 0.00 | 0.00 | 28 | 1007.0 |
| 20260904100019 | 66 | 181 | 6.0 | 17.0 | 0.00 | 0.00 | 0.00 | 27 | 1006.9 |
| 20260904094520 | 67 | 194 | 9.0 | 16.0 | 0.00 | 0.00 | 0.00 | 26 | 1006.9 |
| 20260904093015 | 67 | 202 | 7.0 | 18.0 | 0.00 | 0.00 | 0.00 | 25 | 1006.8 |
| 20260904091529 | 66 | 209 | 6.0 | 13.0 | 0.00 | 0.00 | 0.00 | 25 | 1006.9 |
| 20260904090015 | 66 | 225 | 2.0 | 10.0 | 0.00 | 0.00 | 0.00 | 24 | 1006.9 |
| 20260904084510 | 66 | 196 | 3.0 | 9.0 | 0.00 | 0.00 | 0.00 | 22 | 1006.7 |
| 20260904083020 | 66 | 221 | 5.0 | 11.0 | 0.00 | 0.00 | 0.00 | 22 | 1006.9 |
| 20260904081507 | 67 | 161 | 3.0 | 10.0 | 0.00 | 0.00 | 0.00 | 21 | 1007.0 |
| 20260904080009 | 67 | 161 | 6.0 | 14.0 | 0.00 | 0.00 | 0.00 | 20 | 1007.1 |
| 20260904074506 | 68 | 162 | 7.0 | 14.0 | 0.00 | 0.00 | 0.00 | 20 | 1007.1 |
| 20260904073001 | 68 | 195 | 6.0 | 15.0 | 0.00 | 0.00 | 0.00 | 20 | 1007.0 |
| 20260904071626 | 67 | 230 | 5.0 | 15.0 | 0.00 | 0.00 | 0.00 | 21 | 1006.9 |
| 20260904070112 | 66 | 226 | 0.0 | 4.0 | 0.00 | 0.00 | 0.00 | 20 | 1006.9 |
| 20260904064607 | 67 | 160 | 0.0 | 5.0 | 0.00 | 0.00 | 0.00 | 20 | 1006.8 |
| 20260904063058 | 68 | 234 | 6.0 | 12.0 | 0.00 | 0.00 | 0.00 | 20 | 1006.7 |
| 20260904061554 | 68 | 171 | 7.0 | 12.0 | 0.00 | 0.00 | 0.00 | 20 | 1006.8 |
| 20260904060049 | 66 | 184 | 3.0 | 7.0 | 0.00 | 0.00 | 0.00 | 21 | 1006.8 |
| 20260904054549 | 66 | 266 | 0.0 | 3.0 | 0.00 | 0.00 | 0.00 | 21 | 1006.9 |
| 20260904053059 | 67 | 133 | 1.0 | 7.0 | 0.00 | 0.00 | 0.00 | 19 | 1007.0 |
| 20260904051548 | 68 | 129 | 1.0 | 6.0 | 0.00 | 0.00 | 0.00 | 19 | 1007.0 |
| 20260904050051 | 67 | 153 | 1.0 | 6.0 | 0.00 | 0.00 | 0.00 | 19 | 1007.0 |
| 20260904044549 | 67 | 127 | 0.0 | 2.0 | 0.00 | 0.00 | 0.00 | 18 | 1007.2 |
| 20260904043048 | 67 | 275 | 0.0 | 2.0 | 0.00 | 0.00 | 0.00 | 18 | 1007.3 |
| 20260904041547 | 69 | 57 | 0.0 | 2.0 | 0.00 | 0.00 | 0.00 | 16 | 1007.1 |
| 20260904040045 | 70 | 156 | 0.0 | 5.0 | 0.00 | 0.00 | 0.00 | 16 | 1007.0 |
| 20260904034546 | 71 | 228 | 5.0 | 12.0 | 0.00 | 0.00 | 0.00 | 15 | 1006.8 |
| 20260904033054 | 71 | 219 | 5.0 | 9.0 | 0.00 | 0.00 | 0.00 | 15 | 1006.6 |
| 20260904031600 | 72 | 210 | 7.0 | 16.0 | 0.00 | 0.00 | 0.00 | 15 | 1006.6 |
| 20260904030043 | 72 | 228 | 3.0 | 15.0 | 0.00 | 0.00 | 0.00 | 15 | 1006.5 |
| 20260904024542 | 72 | 218 | 2.0 | 8.0 | 0.00 | 0.00 | 0.00 | 14 | 1006.3 |
| 20260904023041 | 72 | 201 | 4.0 | 9.0 | 0.00 | 0.00 | 0.00 | 14 | 1006.2 |
| 20260904021548 | 73 | 211 | 3.0 | 14.0 | 0.00 | 0.00 | 0.00 | 13 | 1006.1 |
| 20260904020042 | 74 | 198 | 4.0 | 13.0 | 0.00 | 0.00 | 0.00 | 12 | 1005.9 |
| 20260904014543 | 76 | 203 | 9.0 | 16.0 | 0.00 | 0.00 | 0.00 | 11 | 1006.0 |
| 20260904013040 | 78 | 226 | 9.0 | 19.0 | 0.00 | 0.00 | 0.00 | 11 | 1006.1 |
| 20260904011538 | 78 | 169 | 11.0 | 21.0 | 0.00 | 0.00 | 0.00 | 11 | 1006.0 |
| 20260904010038 | 79 | 226 | 9.0 | 21.0 | 0.00 | 0.00 | 0.00 | 11 | 1006.2 |
| 20260904004535 | 79 | 218 | 8.0 | 24.0 | 0.00 | 0.00 | 0.00 | 11 | 1006.2 |
| 20260904003035 | 80 | 143 | 12.0 | 28.0 | 0.00 | 0.00 | 0.00 | 11 | 1006.1 |
| 20260904001537 | 80 | 222 | 14.0 | 27.0 | 0.00 | 0.00 | 0.00 | 12 | 1006.2 |
| 20260904000033 | 80 | 213 | 14.0 | 24.0 | 0.00 | 0.00 | 0.00 | 12 | 1006.1 |
| 20260903234531 | 80 | 210 | 14.0 | 32.0 | 0.00 | 0.00 | 0.00 | 12 | 1006.3 |
| 20260903233034 | 80 | 199 | 16.0 | 26.0 | 0.00 | 0.00 | 0.00 | 13 | 1006.4 |
| 20260903231530 | 80 | 202 | 14.0 | 23.0 | 0.00 | 0.00 | 0.00 | 13 | 1006.5 |
| 20260903230028 | 80 | 190 | 12.0 | 25.0 | 0.00 | 0.00 | 0.00 | 14 | 1006.7 |
| 20260903224533 | 80 | 214 | 12.0 | 25.0 | 0.00 | 0.00 | 0.00 | 14 | 1006.9 |
| 20260903223024 | 80 | 176 | 11.0 | 24.0 | 0.00 | 0.00 | 0.00 | 15 | 1007.2 |
| 20260903221540 | 80 | 198 | 9.0 | 25.0 | 0.00 | 0.00 | 0.00 | 14 | 1007.4 |
| 20260903220020 | 80 | 189 | 13.0 | 22.0 | 0.00 | 0.00 | 0.00 | 15 | 1007.6 |
| 20260903214518 | 79 | 181 | 14.0 | 27.0 | 0.00 | 0.00 | 0.00 | 14 | 1007.7 |
| 20260903213020 | 79 | 181 | 11.0 | 21.0 | 0.00 | 0.00 | 0.00 | 14 | 1007.8 |
| 20260903211514 | 79 | 202 | 13.0 | 28.0 | 0.00 | 0.00 | 0.00 | 15 | 1008.0 |
| 20260903210015 | 79 | 185 | 15.0 | 24.0 | 0.00 | 0.00 | 0.00 | 14 | 1008.1 |
| 20260903204510 | 78 | 210 | 12.0 | 23.0 | 0.00 | 0.00 | 0.00 | 14 | 1008.2 |
| 20260903203110 | 78 | 201 | 15.0 | 28.0 | 0.00 | 0.00 | 0.00 | 14 | 1008.3 |
| 20260903201508 | 78 | 157 | 19.0 | 27.0 | 0.00 | 0.00 | 0.00 | 14 | 1008.5 |
| 20260903200013 | 77 | 190 | 15.0 | 27.0 | 0.00 | 0.00 | 0.00 | 14 | 1008.6 |
| 20260903194515 | 77 | 175 | 13.0 | 24.0 | 0.00 | 0.00 | 0.00 | 14 | 1008.8 |
| 20260903193004 | 76 | 162 | 12.0 | 29.0 | 0.00 | 0.00 | 0.00 | 14 | 1008.9 |
| 20260903191502 | 76 | 212 | 16.0 | 24.0 | 0.00 | 0.00 | 0.00 | 16 | 1009.2 |
| 20260903190002 | 76 | 178 | 12.0 | 27.0 | 0.00 | 0.00 | 0.00 | 15 | 1009.3 |
| 20260903184600 | 76 | 184 | 15.0 | 25.0 | 0.00 | 0.00 | 0.00 | 16 | 1009.7 |
| 20260903183059 | 75 | 193 | 15.0 | 26.0 | 0.00 | 0.00 | 0.00 | 17 | 1009.7 |
| 20260903181556 | 74 | 221 | 9.0 | 24.0 | 0.00 | 0.00 | 0.00 | 19 | 1009.8 |
| 20260903180113 | 74 | 205 | 9.0 | 21.0 | 0.00 | 0.00 | 0.00 | 19 | 1009.9 |
| 20260903174554 | 74 | 198 | 15.0 | 27.0 | 0.00 | 0.00 | 0.00 | 18 | 1009.9 |
| 20260903173053 | 74 | 174 | 10.0 | 22.0 | 0.00 | 0.00 | 0.00 | 19 | 1009.9 |
| 20260903171554 | 72 | 176 | 11.0 | 28.0 | 0.00 | 0.00 | 0.00 | 20 | 1009.9 |
| 20260903170051 | 72 | 230 | 16.0 | 29.0 | 0.00 | 0.00 | 0.00 | 19 | 1009.8 |
| 20260903164559 | 73 | 184 | 11.0 | 21.0 | 0.00 | 0.00 | 0.00 | 19 | 1009.8 |
| 20260903163048 | 72 | 176 | 12.0 | 24.0 | 0.00 | 0.00 | 0.00 | 19 | 1009.7 |
| 20260903161549 | 72 | 181 | 11.0 | 22.0 | 0.00 | 0.00 | 0.00 | 19 | 1009.7 |
| 20260903160048 | 72 | 174 | 13.0 | 22.0 | 0.00 | 0.00 | 0.00 | 18 | 1009.6 |
| 20260903154545 | 72 | 157 | 9.0 | 14.0 | 0.00 | 0.00 | 0.00 | 17 | 1009.7 |
| 20260903153042 | 71 | 200 | 5.0 | 12.0 | 0.00 | 0.00 | 0.00 | 17 | 1009.8 |
| 20260903151540 | 68 | 150 | 8.0 | 13.0 | 0.00 | 0.00 | 0.00 | 19 | 1010.0 |
| 20260903150039 | 58 | 28 | 2.0 | 5.0 | 0.00 | 0.00 | 0.00 | 43 | 1009.9 |
| 20260903144540 | 57 | 7 | 1.0 | 4.0 | 0.00 | 0.00 | 0.00 | 43 | 1009.9 |
| 20260903143037 | 57 | 355 | 0.0 | 3.0 | 0.00 | 0.00 | 0.00 | 40 | 1010.0 |
| 20260903141536 | 55 | 24 | 0.0 | 0.0 | 0.00 | 0.00 | 0.00 | 32 | 1009.8 |
| 20260903140034 | 55 | 140 | 0.0 | 0.0 | 0.00 | 0.00 | 0.00 | 32 | 1009.8 |
| 20260903134534 | 52 | 140 | 0.0 | 0.0 | 0.00 | 0.00 | 0.00 | 35 | 1009.8 |
| 20260903133032 | 49 | 207 | 0.0 | 0.0 | 0.00 | 0.00 | 0.00 | 36 | 1009.6 |
| 20260903131531 | 47 | 148 | 0.0 | 0.0 | 0.00 | 0.00 | 0.00 | 38 | 1009.5 |